Voltar ao catálogo

ELECTRON KICK STAGE R/B

AtivoVLEO
NORAD 65117·ROCKET BODY·🇺🇸 United States

Lançado Aug 5, 2025 de Rocket Lab Launch Complex 1

Loading…

Próximas Passagens (próximas 24 horas)

TLE

AtualizadoSource: Space-Track

Época: Sep 14, 2026, 07:50 UTC

1 65117U 25169B   26257.32706226  .00003525  00000-0  27853-3 0  9996
2 65117  42.0098 243.1133 0007438  70.4113 289.7516 15.01983479 60832

Acompanhe ELECTRON KICK STAGE R/B em tempo real com AllMySat

Download on the App Store